Location: Beaver Brook Station
(42.3793°N, 71.2203°W)
Time: 01:38:44
(UTC+00:00)

Cosmos 1980 Rocket - Pass Details

Date: 29 October 2020
Orbit: 830 x 848 km, 71.0° (Epoch: 05 December)

Event Time Altitude Azimuth Distance (km) Brightness Sun altitude
Rises 22:33:43 0° 167° (SSE) 3,376 5.3 -10.2°
Reaches altitude 10° 22:36:34 10° 153° (SSE) 2,443 4.4 -10.7°
Maximum altitude 22:40:57 24° 102° (ESE) 1,665 3.2 -11.5°
Enters shadow 22:44:40 13° 55° (NE) 2,254 3.9 -12.2°
